Regional Weather Roundup
Issued by NWS Northern Indiana

Home | Current Version | Previous Version | Graphics & Text | Print | Product List | Glossary On
Versions: 1 2 3 4 5 6 7 8 9 10 11 12 13 14 15 16 17 18 19 20 21 22 23 24 25 26 27 28 29 30 31 32 33 34 35 36 37 38 39 40 41 42 43 44 45 46 47 48 49 50
000
ASUS43 KIWX 230900
RWRIWX

KIWX WEATHER ROUNDUP
NATIONAL WEATHER SERVICE NORTHERN INDIANA
500 AM EDT THU MAR 23 2017

NOTE: "FAIR" INDICATES FEW OR NO CLOUDS BELOW 12,000 FEET WITH NO
SIGNIFICANT WEATHER AND/OR OBSTRUCTIONS TO VISIBILITY.

* THESE STATIONS ARE NOT UNDER NWS QUALITY CONTROL. THEY ALSO MAY NOT
  REPORT WEATHER SUCH AS PRECIPITATION OR FOG.

INZ001>027-231000-
NORTHERN INDIANA

CITY           SKY/WX    TMP DP  RH WIND       PRES   REMARKS
MICHIGAN CITY* CLOUDY    28  19  69 SE6       30.45F WCI  22
KNOX*          PTCLDY    27   5  39 E7        30.45F WCI  19
SOUTH BEND     PTCLDY    26  17  68 SE10      30.46F WCI  16
GOSHEN         CLEAR     25  14  63 SE6       30.47F WCI  18
MONTICELLO*    CLOUDY    29  20  71 E7        30.43F WCI  22
ANGOLA*        CLEAR     21  16  79 SE8       30.47F WCI  12
FORT WAYNE     PTCLDY    23  16  74 E8        30.48F WCI  14
PERU/GRISSOM   CLOUDY    28  19  69 E7        30.43F WCI  20

$$
INZ028>050-231000-
CENTRAL INDIANA

CITY           SKY/WX    TMP DP  RH WIND       PRES   REMARKS
LAFAYETTE      CLOUDY    28  22  78 E9        30.43F WCI  19
KOKOMO*        CLOUDY    27  20  75 E10       30.45F WCI  17
MUNCIE*        CLEAR     27  20  75 E8        30.44F WCI  19
INDIANAPOLIS   CLOUDY    30  19  63 E10       30.42S WCI  21

$$
MIZ043>046-050>051-056>058-064>065-071>073-077>080-231000-
SOUTHWEST LOWER MICHIGAN

CITY           SKY/WX    TMP DP  RH WIND       PRES   REMARKS
BATTLE CREEK   CLEAR     25  16  68 SE7       30.47F WCI  17
BENTON HARBOR  CLOUDY    25  15  66 SE6       30.46F WCI  18
COLDWATER*     CLEAR     24  16  71 SE6       30.48F WCI  17
HILLSDALE*     CLEAR     21  16  79 SE5       30.47F WCI  15
HOLLAND        CLEAR     23  14  68 SE6       30.47F WCI  16
GRAND RAPIDS   CLEAR     24  12  60 SE7       30.47F WCI  16
KALAMAZOO      CLEAR     26  14  60 SE6       30.48F WCI  19
STURGIS*       CLEAR     24  16  70 SE8       30.47F WCI  15
THREE RIVERS*  FAIR      26  16  66 SE5       30.49S WCI  20

$$
OHZ001>008-015>018-024>025-231000-
NORTHWEST OHIO

CITY           SKY/WX    TMP DP  RH WIND       PRES   REMARKS
DEFIANCE       CLOUDY    20  14  77 E3        30.52F
FINDLAY        CLOUDY    22  14  71 E6        30.50F WCI  14
TOLEDO EXPRESS PTCLDY    19  15  84 CALM      30.52F
TOLEDO METCALF CLOUDY    21  16  81 E5        30.54F WCI  15
LIMA           CLOUDY    20  16  84 E6        30.49S WCI  12

$$
AND FOR LAKE MICHIGAN COASTAL AND OPEN LAKE BUOY OBSERVATIONS

STATION/POSITION TEMP    WIND        PRES    VSBY  WAVE
                 AIR SEA DIR/SP/G                  HT/PER
                 (F)     (DEG/KT/KT) (MB)    (MI)  (FT/S)
CALUMET HARBOR    32     130/ 10/ 15 1029.9F
MICHIGAN CITY     29     120/  6/  7   N/A
BURNS HARBOR      31     140/  9/ 14 1030.8F
SAINT JOSEPH      26      CALM  /  2 1031.8

$$
&&




USA.gov is the U.S. government's official web portal to all federal, state and local government web resources and services.